#timestamp,LO_Frequency,Hit,StdDev 
1611280815.7,286046995.3,N
1611280835.6,286046999.4,N
1611280855.4,286046997.5,N
1611280875.3,286046996.7,N
1611280895.1,286046998.6,N
1611280896.0,286046998.6,N
1611280915.8,286046996.0,N
1611280935.7,286046998.9,N
1611280955.5,286046998.5,N
1611280975.3,286047002.8,N
1611280995.2,286047002.7,N
1611281015.0,286047000.8,N
1611281015.9,286047000.8,N
1611281035.8,286046997.1,N
1611281055.6,286046997.8,N
1611281075.4,286046997.1,N
1611281095.3,286046994.2,N
1611281115.1,286046996.0,N
1611281135.8,286046997.9,N
1611281155.7,286046999.9,N
1611281175.5,286047002.6,N
1611281195.4,286047004.3,N
1611281215.2,286047001.5,N
1611281235.0,286047001.8,N
1611281235.9,286047001.8,N
1611281255.8,286047003.4,N
1611281275.6,286047002.2,N
1611281295.4,286047000.2,N
1611281315.3,286046999.3,N
1611281335.1,286047000.2,N
1611281355.9,286047002.8,N
1611281375.7,286047004.4,N
1611281395.5,286047000.9,N
1611281415.4,286046999.0,N
1611281435.2,286047000.3,N
1611281455.0,286047004.1,N
1611281455.9,286047004.1,N
1611281475.8,286047001.6,N
1611281495.6,286047007.4,N
1611281515.5,286047005.0,N
1611281535.3,286047007.2,N
1611281555.1,286047008.8,N
1611281575.9,286047005.7,N
1611281595.7,286047003.3,N
1611281615.5,286047001.7,N
1611281635.4,286047006.0,N
1611281655.2,286047000.3,N
1611281675.1,286047002.7,N
1611281676.0,286047002.7,N
1611281695.8,286047007.6,Y
1611281715.6,286047007.3,P
1611281735.5,286047005.7,N
1611281755.3,286047004.0,N
1611281775.1,286047002.1,N
1611281795.9,286047000.7,N
1611281815.7,286047002.1,N
1611281835.6,286047001.9,N
1611281855.4,286047002.2,N
1611281875.2,286047004.3,N
1611281895.1,286047007.4,Y
1611281896.0,286047007.4,P
1611281915.8,286047004.0,N
1611281935.6,286047003.7,N
1611281955.5,286047001.8,N
1611281975.3,286047000.8,N
1611281995.2,286046999.7,N
1611282015.9,286046999.4,N
1611282035.7,286047000.6,N
1611282055.6,286046999.6,N
1611282075.4,286047002.8,N
1611282095.2,286047004.3,N
1611282115.1,286047007.3,Y
1611282116.0,286047007.3,P
1611282135.8,286046999.7,N
1611282155.7,286046998.5,N
1611282175.5,286046997.7,N
1611282195.3,286046996.6,N
1611282215.2,286046997.4,N
1611282235.0,286046999.1,N
1611282235.9,286046999.1,N
1611282255.7,286046995.1,N
1611282275.6,286046997.6,N
1611282295.4,286047002.7,N
1611282315.3,286046999.3,N
1611282335.1,286046998.4,N
1611282336.0,286046998.4,N
1611282355.8,286046998.8,N
1611282375.7,286047001.2,N
1611282395.5,286047001.6,N
1611282415.3,286047002.6,N
1611282435.2,286047000.7,N
1611282455.0,286046998.4,N
1611282455.9,286046998.4,N
1611282475.8,286046998.5,N
1611282495.6,286047001.0,N
1611282515.4,286046999.8,N
1611282535.3,286046998.2,N
1611282555.1,286046999.0,N
1611282575.8,286046999.5,N
1611282595.7,286046997.1,N
1611282615.5,286046997.5,N
1611282635.4,286046997.3,N
1611282655.2,286047001.3,N
1611282675.0,286047003.7,N
1611282675.9,286047003.7,N
1611282695.8,286047004.3,N
1611282715.6,286046998.2,N
1611282735.4,286047000.0,N
1611282755.3,286046995.1,N
1611282775.1,286046995.4,N
1611282795.9,286046996.8,N
1611282815.7,286046999.0,N
1611282835.5,286046999.5,N
1611282855.4,286046997.2,N
1611282875.2,286046999.8,N
1611282895.0,286047003.7,N
1611282895.9,286047003.7,N
1611282915.8,286047003.4,N
1611282935.6,286047005.7,N
1611282955.5,286047005.6,N
1611282975.3,286047008.3,N
1611282995.1,286047007.7,N
1611283015.9,286047008.4,N
1611283065.7,286047001.7,E
1611283075.7,286047001.6,N
1611283095.5,286046997.1,P
1611283115.3,286046995.9,N
1611283135.2,286046994.2,N
1611283155.0,286046996.6,N
1611283155.9,286046996.6,N
1611283175.7,286046995.1,N
1611283195.6,286046996.2,N
1611283215.4,286046994.4,N
1611283235.3,286046990.1,Y
1611283255.1,286046992.2,P
1611283275.8,286046992.4,P
1611283295.7,286046992.7,P
1611283315.5,286046992.6,Y
1611283335.4,286046997.3,P
1611283355.2,286046996.6,N
1611283375.0,286046997.3,N
1611283375.9,286046997.3,N
1611283395.8,286046997.5,N
1611283415.6,286047011.9,Y
1611283435.4,286046997.1,P
1611283455.3,286047000.6,N
1611283475.1,286046995.1,N
1611283495.9,286046994.4,N
1611283515.7,286046995.5,N
1611283535.5,286046998.3,N
1611283555.4,286047002.3,N
1611283575.2,286047001.9,N
1611283595.0,286046999.8,N
1611283595.9,286046999.8,N
1611283615.8,286047002.1,N
1611283635.6,286047003.0,N
1611283655.5,286047004.0,N
1611283675.3,286047002.5,N
1611283695.1,286047000.4,N
1611283715.9,286046999.7,N
1611283735.7,286046998.6,N
1611283755.5,286046998.5,N
1611283775.4,286047002.6,N
1611283795.2,286046999.7,N
1611283815.1,286047001.2,N
1611283816.0,286047001.2,N
1611283835.8,286046997.8,N
1611283855.6,286046999.8,N
1611283875.5,286047003.9,N
1611283895.3,286047003.5,N
1611283915.1,286047005.9,N
1611283935.9,286047004.2,N
1611283955.7,286047002.2,N
1611283975.6,286047002.2,N
1611283995.4,286047005.5,N
1611284015.2,286047008.8,Y
1611284035.1,286047007.3,P
1611284036.0,286047007.3,N
1611284055.8,286047006.7,N
1611284075.6,286047007.4,N
1611284095.5,286047006.5,N
1611284115.3,286047008.4,Y
1611284135.2,286046998.9,P
1611284155.9,286046999.5,N
1611284175.7,286046998.9,N
1611284195.6,286046998.0,N
1611284215.4,286046996.0,N
1611284235.2,286046995.5,N
1611284255.1,286046997.6,N
1611284256.0,286046997.6,N
1611284275.8,286046997.4,N
1611284295.7,286046999.8,N
1611284315.5,286047000.4,N
1611284335.3,286047000.9,N
1611284355.2,286046998.4,N
1611284375.0,286046997.0,N
1611284375.9,286046997.0,N
1611284395.7,286046995.6,N
